User: anonymous   Login
Location: Unspecified
(0.0000°N, 0.0000°E)
Time: 03:31:49
(UTC+00:00)
Language:

TOPSAT - Orbit

View from above orbital plane
View from above orbital plane
View from above satellite
View from above satellite

Ground track
Ground track

The orbit data is extracted from the following two-line orbital elements,

1 28891U 05043B   17173.94885436 +.00000081 +00000-0 +25270-4 0  9995
2 28891 097.8857 329.1466 0017672 134.5594 225.7057 14.61273390621192
Epoch (UTC): 22 June 2017 22:46:21
Eccentricity: 0.0017672
inclination: 97.8857°
perigee height: 676 km
apogee height: 701 km
right ascension of ascending node: 329.1466°
argument of perigee: 134.5594°
revolutions per day: 14.61273390
mean anomaly at epoch: 225.7057°
orbit number at epoch: 62119

The dashed part of the orbit path shows where the satellite is in the earth's shadow,  

DLR